Time,TemperatureF,DewpointF,PressureIn,WindDirection,WindDirectionDegrees,WindSpeedMPH,WindSpeedGustMPH,Humidity,HourlyPrecipIn,Conditions,Clouds,dailyrainin,SoftwareType,DateUTC
2013-04-10 00:00:00,75.2,65.1,30.05,ESE,112,4.6,4.6,71,0.00,CLR,,0.08,WeatherDisplay:10.37,2013-04-10 04:00:00,
2013-04-10 00:02:00,75.4,65.3,30.05,ENE,68,2.3,3.1,71,0.00,RA,,0.00,WeatherDisplay:10.37,2013-04-10 04:02:00,
2013-04-10 00:07:00,75.2,65.1,30.05,ESE,112,3.6,3.6,71,0.00,RA,,0.00,WeatherDisplay:10.37,2013-04-10 04:07:00,
2013-04-10 00:12:00,75.2,65.1,30.05,ENE,68,4.6,4.6,71,0.00,CLR,,0.00,WeatherDisplay:10.37,2013-04-10 04:12:00,
2013-04-10 00:17:00,75.2,64.7,30.05,NW,315,4.6,4.6,70,0.00,CLR,,0.00,WeatherDisplay:10.37,2013-04-10 04:17:00,
2013-04-10 00:22:00,75.2,64.7,30.05,ESE,112,3.8,3.8,70,0.00,CLR,,0.00,WeatherDisplay:10.37,2013-04-10 04:22:00,
2013-04-10 00:27:00,75.2,64.7,30.05,SE,135,5.8,5.8,70,0.00,CLR,,0.00,WeatherDisplay:10.37,2013-04-10 04:27:00,
2013-04-10 00:32:00,75.2,64.7,30.05,ENE,68,4.6,4.6,70,0.00,CLR,,0.00,WeatherDisplay:10.37,2013-04-10 04:32:00,
2013-04-10 00:37:00,75.0,65.0,30.05,ESE,112,4.7,4.7,71,0.00,CLR,,0.00,WeatherDisplay:10.37,2013-04-10 04:37:00,
2013-04-10 00:42:00,75.0,65.0,30.05,SE,135,4.6,4.6,71,0.00,CLR,,0.00,WeatherDisplay:10.37,2013-04-10 04:42:00,
2013-04-10 00:47:00,75.4,64.9,30.05,ESE,112,5.8,5.8,70,0.00,CLR,,0.00,WeatherDisplay:10.37,2013-04-10 04:47:00,
2013-04-10 00:52:00,75.2,65.1,30.05,ESE,112,6.9,6.9,71,0.00,CLR,,0.00,WeatherDisplay:10.37,2013-04-10 04:52:00,
2013-04-10 00:57:00,75.2,65.1,30.04,ESE,112,4.6,4.6,71,0.00,CLR,,0.00,WeatherDisplay:10.37,2013-04-10 04:57:00,
2013-04-10 01:02:00,75.2,65.1,30.04,SE,135,3.6,3.6,71,0.00,CLR,,0.00,WeatherDisplay:10.37,2013-04-10 05:02:00,
2013-04-10 01:07:00,75.4,64.9,30.04,East,90,3.5,3.5,70,0.00,CLR,,0.00,WeatherDisplay:10.37,2013-04-10 05:07:00,
2013-04-10 01:13:00,75.2,65.1,30.04,SE,135,4.6,4.6,71,0.00,CLR,,0.00,WeatherDisplay:10.37,2013-04-10 05:13:00,
2013-04-10 01:18:00,75.0,65.0,30.04,SE,135,6.9,6.9,71,0.00,CLR,,0.00,WeatherDisplay:10.37,2013-04-10 05:18:00,
2013-04-10 01:23:00,74.8,64.8,30.04,East,90,4.6,4.6,71,0.00,CLR,,0.00,WeatherDisplay:10.37,2013-04-10 05:23:00,
2013-04-10 01:28:00,74.7,64.6,30.04,East,90,5.8,5.8,71,0.00,CLR,,0.00,WeatherDisplay:10.37,2013-04-10 05:28:00,
2013-04-10 01:33:00,74.8,64.8,30.04,ESE,112,9.2,9.2,71,0.00,CLR,,0.00,WeatherDisplay:10.37,2013-04-10 05:33:00,
2013-04-10 01:38:00,74.7,65.0,30.03,ESE,112,4.6,4.6,72,0.00,CLR,,0.00,WeatherDisplay:10.37,2013-04-10 05:38:00,
2013-04-10 01:43:00,74.7,65.0,30.03,East,90,9.2,9.2,72,0.00,CLR,,0.00,WeatherDisplay:10.37,2013-04-10 05:43:00,
2013-04-10 01:48:00,74.7,65.0,30.03,ESE,112,8.1,8.1,72,0.00,CLR,,0.00,WeatherDisplay:10.37,2013-04-10 05:48:00,
2013-04-10 01:53:00,74.5,64.9,30.03,SE,135,5.8,5.8,72,0.00,CLR,,0.00,WeatherDisplay:10.37,2013-04-10 05:53:00,
2013-04-10 01:58:00,74.5,64.9,30.02,ESE,112,5.8,5.8,72,0.00,CLR,,0.00,WeatherDisplay:10.37,2013-04-10 05:58:00,
2013-04-10 02:03:00,74.5,64.9,30.02,ESE,112,3.5,3.5,72,0.00,CLR,,0.00,WeatherDisplay:10.37,2013-04-10 06:03:00,
2013-04-10 02:08:00,74.5,64.9,30.02,ESE,112,6.9,6.9,72,0.00,CLR,,0.00,WeatherDisplay:10.37,2013-04-10 06:08:00,
2013-04-10 02:13:00,74.5,64.9,30.02,SE,135,5.8,5.8,72,0.00,CLR,,0.00,WeatherDisplay:10.37,2013-04-10 06:13:00,
2013-04-10 02:18:00,74.7,65.0,30.02,East,90,5.8,5.8,72,0.00,CLR,,0.00,WeatherDisplay:10.37,2013-04-10 06:18:00,
2013-04-10 02:23:00,74.7,65.0,30.02,East,90,4.6,4.6,72,0.00,CLR,,0.00,WeatherDisplay:10.37,2013-04-10 06:23:00,
2013-04-10 02:28:00,74.7,65.0,30.02,SE,135,2.3,3.0,72,0.00,CLR,,0.00,WeatherDisplay:10.37,2013-04-10 06:28:00,
2013-04-10 02:33:00,74.7,65.4,30.02,East,90,2.3,2.5,73,0.00,CLR,,0.00,WeatherDisplay:10.37,2013-04-10 06:33:00,
2013-04-10 02:38:00,74.5,65.3,30.02,ENE,68,2.8,2.8,73,0.00,CLR,,0.00,WeatherDisplay:10.37,2013-04-10 06:38:00,
2013-04-10 02:43:00,74.3,65.1,30.02,ESE,112,2.6,2.6,73,0.00,CLR,,0.00,WeatherDisplay:10.37,2013-04-10 06:43:00,
2013-04-10 02:48:00,74.3,65.1,30.02,East,90,3.5,3.5,73,0.00,CLR,,0.00,WeatherDisplay:10.37,2013-04-10 06:48:00,
2013-04-10 02:53:00,74.3,65.1,30.02,ESE,112,2.3,2.6,73,0.00,CLR,,0.00,WeatherDisplay:10.37,2013-04-10 06:53:00,
2013-04-10 02:58:00,74.1,64.5,30.01,ESE,112,4.6,4.6,72,0.00,CLR,,0.00,WeatherDisplay:10.37,2013-04-10 06:58:00,
2013-04-10 03:03:00,74.1,64.5,30.01,East,90,3.9,3.9,72,0.00,CLR,,0.00,WeatherDisplay:10.37,2013-04-10 07:03:00,
2013-04-10 03:08:00,74.3,65.1,30.01,ESE,112,4.6,4.6,73,0.00,CLR,,0.00,WeatherDisplay:10.37,2013-04-10 07:08:00,
2013-04-10 03:13:00,74.3,65.1,30.01,ESE,112,3.5,3.5,73,0.00,CLR,,0.00,WeatherDisplay:10.37,2013-04-10 07:13:00,
2013-04-10 03:18:00,74.3,65.1,30.01,East,90,4.6,4.6,73,0.00,CLR,,0.00,WeatherDisplay:10.37,2013-04-10 07:18:00,
2013-04-10 09:33:00,78.3,69.3,30.01,SSE,158,5.8,5.8,74,0.00,CLR,,0.00,WeatherDisplay:10.37,2013-04-10 13:33:00,
2013-04-10 09:38:00,78.6,69.2,30.02,SE,135,4.6,4.6,73,0.00,CLR,,0.00,WeatherDisplay:10.37,2013-04-10 13:38:00,
2013-04-10 09:43:00,78.6,69.2,30.02,ENE,68,8.1,8.1,73,0.00,CLR,,0.00,WeatherDisplay:10.37,2013-04-10 13:43:00,
2013-04-10 09:48:00,79.2,69.8,30.02,ENE,68,4.6,4.7,73,0.00,CLR,,0.00,WeatherDisplay:10.37,2013-04-10 13:48:00,
2013-04-10 09:53:00,80.1,70.2,30.02,ESE,112,5.8,5.8,72,0.00,CLR,,0.00,WeatherDisplay:10.37,2013-04-10 13:53:00,
2013-04-10 09:58:00,80.2,70.0,30.02,ESE,112,9.2,9.2,71,0.00,CLR,,0.00,WeatherDisplay:10.37,2013-04-10 13:58:00,
2013-04-10 10:03:00,80.4,70.2,30.02,ESE,112,5.8,5.8,71,0.00,CLR,,0.00,WeatherDisplay:10.37,2013-04-10 14:03:00,
2013-04-10 10:08:00,80.8,70.1,30.02,SE,135,5.8,5.8,70,0.00,CLR,,0.00,WeatherDisplay:10.37,2013-04-10 14:08:00,
2013-04-10 10:13:00,80.8,70.1,30.02,East,90,8.1,8.1,70,0.00,CLR,,0.00,WeatherDisplay:10.37,2013-04-10 14:13:00,
2013-04-10 10:18:00,81.5,70.8,30.03,ESE,112,4.6,4.8,70,0.00,CLR,,0.00,WeatherDisplay:10.37,2013-04-10 14:18:00,
2013-04-10 10:23:00,81.7,70.9,30.03,ENE,68,9.2,9.2,70,0.00,CLR,,0.00,WeatherDisplay:10.37,2013-04-10 14:23:00,
2013-04-10 10:28:00,81.7,70.5,30.03,ENE,68,5.8,5.8,69,0.00,CLR,,0.00,WeatherDisplay:10.37,2013-04-10 14:28:00,
2013-04-10 10:33:00,81.5,70.3,30.03,East,90,6.0,6.0,69,0.00,CLR,,0.00,WeatherDisplay:10.37,2013-04-10 14:33:00,
2013-04-10 10:38:00,81.9,70.7,30.03,ENE,68,3.5,5.2,69,0.00,CLR,,0.00,WeatherDisplay:10.37,2013-04-10 14:38:00,
2013-04-10 10:43:00,81.9,70.7,30.03,ESE,112,8.1,8.1,69,0.00,CLR,,0.00,WeatherDisplay:10.37,2013-04-10 14:43:00,
2013-04-10 10:48:00,82.2,71.5,30.03,East,90,5.8,5.8,70,0.00,CLR,,0.00,WeatherDisplay:10.37,2013-04-10 14:48:00,
2013-04-10 10:53:00,82.6,71.4,30.03,ESE,112,6.9,6.9,69,0.00,CLR,,0.00,WeatherDisplay:10.37,2013-04-10 14:53:00,
2013-04-10 10:58:00,82.8,71.1,30.03,East,90,8.1,8.1,68,0.00,CLR,,0.00,WeatherDisplay:10.37,2013-04-10 14:58:00,
2013-04-10 11:03:00,82.9,71.3,30.03,NE,45,6.9,6.9,68,0.00,CLR,,0.00,WeatherDisplay:10.37,2013-04-10 15:03:00,
2013-04-10 11:08:00,82.4,70.8,30.03,SE,135,5.8,5.8,68,0.00,CLR,,0.00,WeatherDisplay:10.37,2013-04-10 15:08:00,
2013-04-10 11:13:00,82.0,70.9,30.03,East,90,8.1,8.1,69,0.00,CLR,,0.00,WeatherDisplay:10.37,2013-04-10 15:13:00,
2013-04-10 11:18:00,81.9,70.7,30.03,ENE,68,9.2,9.2,69,0.00,CLR,,0.00,WeatherDisplay:10.37,2013-04-10 15:18:00,
2013-04-10 11:23:00,81.5,70.3,30.03,South,180,6.0,6.0,69,0.00,CLR,,0.00,WeatherDisplay:10.37,2013-04-10 15:23:00,
2013-04-10 11:28:00,82.6,71.4,30.03,ESE,112,11.5,11.5,69,0.00,CLR,,0.00,WeatherDisplay:10.37,2013-04-10 15:28:00,
2013-04-10 11:33:00,83.1,71.9,30.03,SE,135,9.2,9.2,69,0.00,CLR,,0.00,WeatherDisplay:10.37,2013-04-10 15:33:00,
2013-04-10 11:38:00,83.8,71.7,30.03,SE,135,8.1,8.1,67,0.00,CLR,,0.00,WeatherDisplay:10.37,2013-04-10 15:38:00,
2013-04-10 11:43:00,84.0,71.4,30.03,SE,135,6.9,6.9,66,0.00,CLR,,0.00,WeatherDisplay:10.37,2013-04-10 15:43:00,
2013-04-10 11:48:00,84.4,71.8,30.03,SE,135,9.2,9.2,66,0.00,CLR,,0.00,WeatherDisplay:10.37,2013-04-10 15:48:00,
2013-04-10 11:53:00,84.7,72.6,30.03,ENE,68,6.9,6.9,67,0.00,CLR,,0.00,WeatherDisplay:10.37,2013-04-10 15:53:00,
2013-04-10 11:58:00,84.7,72.1,30.03,East,90,6.9,6.9,66,0.00,CLR,,0.00,WeatherDisplay:10.37,2013-04-10 15:58:00,
2013-04-10 12:03:00,85.3,73.1,30.03,SE,135,4.8,5.5,67,0.00,CLR,,0.00,WeatherDisplay:10.37,2013-04-10 16:03:00,
2013-04-10 12:08:00,85.5,72.8,30.03,SSE,158,5.8,5.8,66,0.00,CLR,,0.00,WeatherDisplay:10.37,2013-04-10 16:08:00,
2013-04-10 12:13:00,85.8,73.1,30.03,SE,135,8.1,8.1,66,0.00,CLR,,0.00,WeatherDisplay:10.37,2013-04-10 16:13:00,
2013-04-10 12:18:00,85.1,72.5,30.03,ENE,68,8.1,8.1,66,0.00,CLR,,0.00,WeatherDisplay:10.37,2013-04-10 16:18:00,
2013-04-10 12:23:00,85.3,72.2,30.03,SE,135,6.9,6.9,65,0.00,CLR,,0.00,WeatherDisplay:10.37,2013-04-10 16:23:00,
2013-04-10 12:28:00,85.8,73.1,30.03,NE,45,4.6,4.6,66,0.00,CLR,,0.00,WeatherDisplay:10.37,2013-04-10 16:28:00,
2013-04-10 12:33:00,86.2,72.6,30.03,ENE,68,5.8,5.8,64,0.00,CLR,,0.00,WeatherDisplay:10.37,2013-04-10 16:33:00,
2013-04-10 12:38:00,86.2,72.1,30.03,SE,135,10.4,10.4,63,0.00,CLR,,0.00,WeatherDisplay:10.37,2013-04-10 16:38:00,
2013-04-10 12:43:00,86.5,72.0,30.03,ENE,68,5.8,5.8,62,0.00,CLR,,0.00,WeatherDisplay:10.37,2013-04-10 16:43:00,
2013-04-10 12:48:00,86.7,72.1,30.03,ESE,112,5.8,5.8,62,0.00,CLR,,0.00,WeatherDisplay:10.37,2013-04-10 16:48:00,
2013-04-10 12:53:00,87.3,72.2,30.02,SE,135,5.8,5.8,61,0.00,CLR,,0.00,WeatherDisplay:10.37,2013-04-10 16:53:00,
2013-04-10 12:58:00,87.3,72.6,30.02,SSE,158,8.1,8.1,62,0.00,CLR,,0.00,WeatherDisplay:10.37,2013-04-10 16:58:00,
2013-04-10 13:03:00,87.3,72.2,30.02,SE,135,4.6,5.4,61,0.00,CLR,,0.00,WeatherDisplay:10.37,2013-04-10 17:03:00,
2013-04-10 13:08:00,87.3,72.2,30.02,East,90,6.9,6.9,61,0.00,CLR,,0.00,WeatherDisplay:10.37,2013-04-10 17:08:00,
2013-04-10 13:13:00,87.4,72.3,30.02,ENE,68,5.8,6.1,61,0.00,CLR,,0.00,WeatherDisplay:10.37,2013-04-10 17:13:00,
2013-04-10 13:18:00,87.4,72.3,30.02,ESE,112,6.9,6.9,61,0.00,CLR,,0.00,WeatherDisplay:10.37,2013-04-10 17:18:00,
2013-04-10 13:23:00,87.4,72.3,30.02,SSE,158,7.0,7.0,61,0.00,CLR,,0.00,WeatherDisplay:10.37,2013-04-10 17:23:00,
2013-04-10 13:28:00,87.8,72.7,30.02,ESE,112,9.2,9.2,61,0.00,CLR,,0.00,WeatherDisplay:10.37,2013-04-10 17:28:00,
2013-04-10 13:33:00,87.8,72.7,30.02,SSE,158,8.9,8.9,61,0.00,CLR,,0.00,WeatherDisplay:10.37,2013-04-10 17:33:00,
2013-04-10 13:38:00,87.4,71.8,30.02,ESE,112,8.1,8.1,60,0.00,CLR,,0.00,WeatherDisplay:10.37,2013-04-10 17:38:00,
2013-04-10 13:43:00,87.6,72.0,30.02,ESE,112,8.1,8.1,60,0.00,CLR,,0.00,WeatherDisplay:10.37,2013-04-10 17:43:00,
2013-04-10 13:48:00,86.4,71.3,30.02,SE,135,12.7,12.7,61,0.00,CLR,,0.00,WeatherDisplay:10.37,2013-04-10 17:48:00,
2013-04-10 13:53:00,86.9,72.3,30.02,SE,135,5.8,5.9,62,0.00,CLR,,0.00,WeatherDisplay:10.37,2013-04-10 17:53:00,
2013-04-10 13:58:00,87.4,72.3,30.02,SSE,158,8.3,8.3,61,0.00,CLR,,0.00,WeatherDisplay:10.37,2013-04-10 17:58:00,
2013-04-10 14:03:00,88.0,72.8,30.02,SE,135,6.9,6.9,61,0.00,CLR,,0.00,WeatherDisplay:10.37,2013-04-10 18:03:00,
2013-04-10 14:09:00,88.0,72.8,30.02,SE,135,5.8,6.4,61,0.00,CLR,,0.00,WeatherDisplay:10.37,2013-04-10 18:09:00,
2013-04-10 14:14:00,88.0,72.4,30.01,SSE,158,9.2,9.2,60,0.00,CLR,,0.00,WeatherDisplay:10.37,2013-04-10 18:14:00,
2013-04-10 14:19:00,87.8,72.2,30.01,ESE,112,9.5,9.5,60,0.00,CLR,,0.00,WeatherDisplay:10.37,2013-04-10 18:19:00,
2013-04-10 14:24:00,88.0,72.4,30.01,SSE,158,9.2,9.2,60,0.00,CLR,,0.00,WeatherDisplay:10.37,2013-04-10 18:24:00,
2013-04-10 14:29:00,88.0,72.4,30.01,SE,135,8.1,8.1,60,0.00,CLR,,0.00,WeatherDisplay:10.37,2013-04-10 18:29:00,
2013-04-10 14:34:00,88.2,73.0,30.01,SE,135,9.2,9.2,61,0.00,CLR,,0.00,WeatherDisplay:10.37,2013-04-10 18:34:00,
2013-04-10 14:39:00,88.3,72.7,30.01,East,90,9.2,9.2,60,0.00,CLR,,0.00,WeatherDisplay:10.37,2013-04-10 18:39:00,
2013-04-10 14:44:00,88.0,72.4,30.01,SE,135,6.9,6.9,60,0.00,CLR,,0.00,WeatherDisplay:10.37,2013-04-10 18:44:00,
2013-04-10 14:49:00,88.2,72.5,30.01,SE,135,9.2,9.2,60,0.00,CLR,,0.00,WeatherDisplay:10.37,2013-04-10 18:49:00,
2013-04-10 14:54:00,88.0,72.4,30.01,SE,135,5.9,6.0,60,0.00,CLR,,0.00,WeatherDisplay:10.37,2013-04-10 18:54:00,
2013-04-10 14:59:00,88.0,72.4,30.01,SE,135,7.2,7.2,60,0.00,CLR,,0.00,WeatherDisplay:10.37,2013-04-10 18:59:00,
2013-04-10 15:04:00,88.3,72.7,30.01,SE,135,7.5,7.5,60,0.00,CLR,,0.00,WeatherDisplay:10.37,2013-04-10 19:04:00,
2013-04-10 15:09:00,88.2,72.5,30.01,SSE,158,8.1,8.1,60,0.00,CLR,,0.00,WeatherDisplay:10.37,2013-04-10 19:09:00,
2013-04-10 15:14:00,88.0,72.4,30.01,SSE,158,9.2,9.2,60,0.00,CLR,,0.00,WeatherDisplay:10.37,2013-04-10 19:14:00,
2013-04-10 15:19:00,88.0,72.4,30.01,South,180,9.2,9.2,60,0.00,CLR,,0.00,WeatherDisplay:10.37,2013-04-10 19:19:00,
2013-04-10 15:24:00,88.0,72.8,30.01,SW,225,9.2,9.2,61,0.00,CLR,,0.00,WeatherDisplay:10.37,2013-04-10 19:24:00,
2013-04-10 15:29:00,87.4,71.8,30.01,SE,135,8.1,8.1,60,0.00,CLR,,0.00,WeatherDisplay:10.37,2013-04-10 19:29:00,
2013-04-10 15:34:00,87.3,71.7,30.00,SE,135,9.2,9.2,60,0.00,CLR,,0.00,WeatherDisplay:10.37,2013-04-10 19:34:00,
2013-04-10 15:39:00,86.9,71.3,30.00,SE,135,9.2,9.2,60,0.00,CLR,,0.00,WeatherDisplay:10.37,2013-04-10 19:39:00,
2013-04-10 15:44:00,87.3,72.2,30.00,SE,135,10.4,10.4,61,0.00,CLR,,0.00,WeatherDisplay:10.37,2013-04-10 19:44:00,
2013-04-10 15:49:00,87.3,72.2,30.00,ESE,112,6.9,6.9,61,0.00,CLR,,0.00,WeatherDisplay:10.37,2013-04-10 19:49:00,
2013-04-10 15:54:00,87.6,72.0,30.00,SE,135,8.1,8.1,60,0.00,CLR,,0.00,WeatherDisplay:10.37,2013-04-10 19:54:00,
2013-04-10 15:59:00,87.6,72.0,30.00,SE,135,8.1,8.1,60,0.00,CLR,,0.00,WeatherDisplay:10.37,2013-04-10 19:59:00,
2013-04-10 16:54:00,87.6,72.0,30.00,SE,135,8.1,8.1,60,0.00,CLR,,0.00,WeatherDisplay:10.37,2013-04-10 20:54:00,
2013-04-10 16:59:00,87.6,72.0,30.00,SE,135,8.1,8.1,60,0.00,CLR,,0.00,WeatherDisplay:10.37,2013-04-10 20:59:00,